Lawrence, MA

4:09 AM EDT on May 23, 2017 (GMT -0400)
Lawrence Municipal

Weather History for KLWM - June, 2013

Change the Weather History Date:

Sunday, June 16, 2013

  Actual Average Record
Temperature  
Mean Temperature 66 °F -  
Max Temperature 79 °F 79 °F 95 °F (1957)
Min Temperature 55 °F 57 °F 43 °F (1963)
Cooling Degree Days 1    
Growing Degree Days 16 (Base 50)    
Moisture  
Dew Point 52 °F    
Average Humidity 57    
Maximum Humidity 75    
Minimum Humidity 36    
Precipitation  
Precipitation 0.00 in - - ()
Sea Level Pressure  
Sea Level Pressure 29.85 in    
Wind  
Wind Speed 6 mph (SW)    
Max Wind Speed 12 mph    
Max Gust Speed 18 mph    
Visibility 10 miles    
Events Rain    
Averages and records for this station are not official NWS values.
T = Trace of Precipitation, MM = Missing Value Source: NWS Daily Summary

Daily Weather History Graph

Daily Weather History Graph

Search for Another Location

Airport or City:

Trip Planner

Search our weather history database for the weather conditions in past years. The results will help you decide how hot, cold, wet, or windy it might be!

Date:

Astronomy

Jun. 16, 2013 Rise Set
Actual Time 5:05 AM EDT 8:24 PM EDT
Civil Twilight 4:30 AM EDT 8:59 PM EDT
Nautical Twilight 3:45 AM EDT 9:45 PM EDT
Astronomical Twilight 2:49 AM EDT 10:41 PM EDT
Moon 12:48 PM EDT (6/16) 12:18 AM EDT (6/16)
Length of Visible Light 16h 29m
Length of Day
15h 19m
Waxing Crescent, 49% of the Moon is Illuminated
Jun 16
Waxing Crescent
Jun 16
First Quarter
Jun 23
Full
Jun 30
Last Quarter
Jul 8
New

Hourly Weather History & Observations

Time (EDT) Temp. Dew Point Humidity Pressure Visibility Wind Dir Wind Speed Gust Speed Precip Events Conditions
12:54 AM 61.0 °F 48.9 °F 64% 29.95 in 10.0 mi SW 3.5 mph - N/A   Clear
1:54 AM 60.1 °F 48.0 °F 64% 29.94 in 10.0 mi SSW 5.8 mph - N/A   Clear
2:54 AM 59.0 °F 48.0 °F 67% 29.94 in 10.0 mi SSW 5.8 mph - N/A   Clear
3:54 AM 55.9 °F 48.0 °F 75% 29.94 in 10.0 mi SSW 3.5 mph - N/A   Clear
4:54 AM 57.0 °F 48.0 °F 72% 29.93 in 10.0 mi SSW 3.5 mph - N/A   Clear
5:54 AM 57.0 °F 48.9 °F 74% 29.94 in 10.0 mi South 3.5 mph - N/A   Clear
6:54 AM 59.0 °F 50.0 °F 72% 29.95 in 10.0 mi SSW 5.8 mph - N/A   Clear
7:54 AM 63.0 °F 51.1 °F 65% 29.95 in 10.0 mi Calm Calm - N/A   Partly Cloudy
8:54 AM 66.0 °F 50.0 °F 56% 29.94 in 10.0 mi WSW 6.9 mph - N/A   Clear
9:54 AM 71.1 °F 50.0 °F 47% 29.92 in 10.0 mi West 3.5 mph - N/A   Clear
10:54 AM 75.0 °F 48.0 °F 38% 29.90 in 10.0 mi SW 9.2 mph - N/A   Clear
11:54 AM 77.0 °F 48.0 °F 36% 29.88 in 10.0 mi SW 10.4 mph - N/A   Clear
12:54 PM 75.9 °F 50.0 °F 40% 29.86 in 10.0 mi SSW 11.5 mph - N/A   Scattered Clouds
1:54 PM 75.0 °F 52.0 °F 44% 29.84 in 10.0 mi SSW 10.4 mph - N/A   Partly Cloudy
2:54 PM 73.9 °F 54.0 °F 50% 29.81 in 10.0 mi SSW 8.1 mph 17.3 mph N/A   Mostly Cloudy
3:54 PM 73.9 °F 55.0 °F 52% 29.78 in 10.0 mi South 9.2 mph - N/A   Overcast
4:54 PM 75.0 °F 55.0 °F 50% 29.77 in 10.0 mi SSW 5.8 mph - N/A   Overcast
5:54 PM 73.0 °F 54.0 °F 51% 29.75 in 10.0 mi South 5.8 mph 17.3 mph 0.00 in   Overcast
6:54 PM 73.0 °F 54.0 °F 51% 29.73 in 10.0 mi SSW 5.8 mph - 0.00 in Rain Light Rain
7:54 PM 73.0 °F 55.9 °F 55% 29.73 in 10.0 mi SSW 5.8 mph - 0.00 in   Overcast
8:54 PM 72.0 °F 57.9 °F 61% 29.74 in 10.0 mi SW 6.9 mph - N/A   Overcast
9:54 PM 71.1 °F 59.0 °F 66% 29.75 in 10.0 mi WSW 6.9 mph - N/A   Overcast
10:54 PM 71.1 °F 57.9 °F 63% 29.76 in 10.0 mi WSW 9.2 mph 18.4 mph N/A   Clear
11:54 PM 70.0 °F 57.0 °F 63% 29.78 in 10.0 mi West 9.2 mph - N/A   Clear